Weather History for Daggett-Barstow, CA

Change the Weather History Date:

Saturday, May 25, 2013

  Actual Average Record
Temperature  
Mean Temperature 75 °F -  
Max Temperature 91 °F 91 °F 104 °F (1951)
Min Temperature 60 °F 63 °F 44 °F (1953)
Cooling Degree Days 10    
Growing Degree Days 25 (Base 50)    
Moisture  
Dew Point 31 °F    
Average Humidity 24    
Maximum Humidity 47    
Minimum Humidity 7    
Precipitation  
Precipitation 0.00 in - - ()
Sea Level Pressure  
Sea Level Pressure 29.82 in    
Wind  
Wind Speed 15 mph (West)    
Max Wind Speed 23 mph    
Max Gust Speed 30 mph    
Visibility 10 miles    
Events      
Averages and records for this station are not official NWS values.
T = Trace of Precipitation, MM = Missing Value Source: NWS Daily Summary

Daily Weather History Graph

Daily Weather History Graph

Search for Another Location

Airport:

Trip Planner

Search our weather history database for the weather conditions in past years. The results will help you decide how hot, cold, wet, or windy it might be!

Date:

Astronomy

May. 25, 2013 Rise Set
Actual Time 5:37 AM PDT 7:51 PM PDT
Civil Twilight 5:08 AM PDT 8:19 PM PDT
Nautical Twilight 4:33 AM PDT 8:55 PM PDT
Astronomical Twilight 3:55 AM PDT 9:33 PM PDT
Moon 8:44 PM PDT (5/25) 6:08 AM PDT (5/25)
Length of Visible Light 15h 11m
Length of Day
14h 13m
Waxing Gibbous, 99% of the Moon is Illuminated
May 25
Waxing Gibbous
May 31
Last Quarter
Jun 8
New
Jun 16
First Quarter
Jun 23
Full

Hourly Weather History & Observations

Time (PDT) Temp. Dew Point Humidity Pressure Visibility Wind Dir Wind Speed Gust Speed Precip Events Conditions
12:50 AM 66.0 °F 39.9 °F 38% 29.83 in 10.0 mi West 15.0 mph - N/A   Clear
1:50 AM 66.9 °F 37.9 °F 34% 29.82 in 10.0 mi WSW 15.0 mph - N/A   Clear
2:50 AM 61.0 °F 39.9 °F 46% 29.82 in 10.0 mi NW 8.1 mph - N/A   Clear
3:50 AM 60.1 °F 39.9 °F 47% 29.82 in 10.0 mi NW 4.6 mph - N/A   Clear
4:50 AM 60.1 °F 37.9 °F 44% 29.83 in 10.0 mi WNW 9.2 mph - N/A   Clear
5:50 AM 61.0 °F 33.1 °F 35% 29.84 in 10.0 mi WNW 8.1 mph - N/A   Clear
6:50 AM 63.0 °F 35.1 °F 35% 29.85 in 10.0 mi West 4.6 mph - N/A   Clear
7:50 AM 70.0 °F 30.9 °F 24% 29.85 in 10.0 mi SW 18.4 mph - N/A   Clear
8:50 AM 72.0 °F 30.0 °F 21% 29.85 in 10.0 mi SW 18.4 mph 27.6 mph N/A   Clear
9:50 AM 75.9 °F 28.0 °F 17% 29.86 in 10.0 mi West 18.4 mph 25.3 mph N/A   Clear
10:50 AM 79.0 °F 25.0 °F 14% 29.85 in 10.0 mi West 19.6 mph 24.2 mph N/A   Clear
11:50 AM 82.9 °F 24.1 °F 12% 29.84 in 10.0 mi West 17.3 mph 23.0 mph N/A   Clear
12:50 PM 86.0 °F 21.0 °F 9% 29.81 in 10.0 mi West 15.0 mph 24.2 mph N/A   Clear
1:50 PM 89.1 °F 19.9 °F 8% 29.79 in 10.0 mi West 18.4 mph 25.3 mph N/A   Clear
2:50 PM 90.0 °F 18.0 °F 7% 29.78 in 10.0 mi West 18.4 mph 25.3 mph N/A   Clear
3:50 PM 90.0 °F 23.0 °F 9% 29.78 in 10.0 mi WSW 21.9 mph 29.9 mph N/A   Clear
4:50 PM 88.0 °F 24.1 °F 10% 29.78 in 10.0 mi WSW 23.0 mph 28.8 mph N/A   Clear
5:50 PM 86.0 °F 28.9 °F 13% 29.78 in 10.0 mi WSW 21.9 mph - N/A   Clear
6:50 PM 82.9 °F 30.9 °F 15% 29.78 in 10.0 mi WSW 20.7 mph - N/A   Clear
7:50 PM 79.0 °F 34.0 °F 20% 29.80 in 10.0 mi WSW 19.6 mph - N/A   Clear
8:50 PM 75.0 °F 36.0 °F 24% 29.82 in 10.0 mi WSW 21.9 mph - N/A   Clear
9:50 PM 73.0 °F 37.0 °F 27% 29.84 in 10.0 mi WSW 17.3 mph - N/A   Clear
10:50 PM 71.1 °F 36.0 °F 28% 29.84 in 10.0 mi WSW 13.8 mph - N/A   Clear
11:50 PM 70.0 °F 35.1 °F 28% 29.84 in 10.0 mi WSW 19.6 mph 29.9 mph N/A   Clear